Location: Bosdarros
(43.2167°N, 0.3667°W)
Time: 07:51:13
(UTC+00:00)

BREEZE-M DEB (TANK) - Pass Details

Date: 22 April 2021
Orbit: 292 x 15381 km, 49.4° (Epoch: 07 May)

Event Time Altitude Azimuth Distance (km) Brightness Sun altitude
Rises 21:52:42 0° 293° (WNW) 6,399 9.1 -27.2°
Reaches altitude 10° 21:58:44 10° 296° (WNW) 3,740 7.8 -27.8°
Enters shadow 22:05:08 55° 322° (NW) 792 3.8 -28.4°
